This demonstration page uses our WeatherBlox Daily Observations layout. Learn more.

Left ArrowRight Arrow

Hourly Observations for October 24, 2015

Temp ( °F °C ) Dew Point ( °F °C ) Humidity (%) Winds ( mph kmh ) Pressure ( in mb ) Visibility ( mi km ) Precip ( " mm )
12:15 am 00:15 Partly Cloudy 47 8.1 43 6 87 87 NW 7 11 30.09 1019 10 16 N/A
12:35 am 00:35 Clear 46 7.8 43 5.9 88 88 NW 10 17 30.09 1019 10 16 N/A
12:55 am 00:55 Clear 47 8.3 41 4.9 79 79 NW 12 19 30.09 1019 10 16 N/A
1:15 am 01:15 Clear 46 7.9 39 4 77 77 NNW 9 15 30.09 1019 10 16 N/A
1:35 am 01:35 Clear 45 7.1 38 3.4 78 78 NW 9 15 30.12 1020 10 16 N/A
1:55 am 01:55 Clear 43 6.1 37 3 81 81 NW 9 15 30.12 1020 10 16 N/A
2:15 am 02:15 Clear 42 5.6 37 2.8 82 82 NW 8 13 30.12 1020 10 16 N/A
2:35 am 02:35 Clear 42 5.5 37 2.7 82 82 NW 8 13 30.12 1020 10 16 N/A
2:55 am 02:55 Clear 41 4.8 37 2.5 85 85 NW 9 15 30.15 1021 10 16 N/A
3:15 am 03:15 Clear 41 5 37 2.6 85 85 NW 10 17 30.15 1021 10 16 N/A
3:35 am 03:35 Clear 40 4.7 37 2.5 86 86 NW 10 17 30.15 1021 10 16 N/A
3:55 am 03:55 Clear 40 4.5 36 2.3 86 86 NW 10 17 30.15 1021 10 16 N/A
4:15 am 04:15 Clear 40 4.2 36 2.1 86 86 NW 10 17 30.18 1022 10 16 N/A
4:35 am 04:35 Clear 39 4 36 2 87 87 NW 9 15 30.18 1022 10 16 N/A
4:55 am 04:55 Clear 38 3.5 35 1.6 88 88 NW 8 13 30.18 1022 10 16 N/A
5:15 am 05:15 Clear 37 2.6 34 1.1 90 90 WNW 8 13 30.18 1022 10 16 N/A
5:35 am 05:35 Clear 37 2.7 34 1.3 91 91 WNW 7 11 30.21 1023 10 16 N/A
5:55 am 05:55 Clear 37 2.5 34 1.2 91 91 WNW 9 15 30.21 1023 10 16 N/A
6:15 am 06:15 Clear 37 2.8 35 1.5 91 91 WNW 8 13 30.21 1023 10 16 N/A
6:35 am 06:35 Clear 36 2.1 33 0.7 91 91 WNW 7 11 30.27 1025 10 16 N/A
6:55 am 06:55 Clear 35 1.7 33 0.5 92 92 WNW 7 11 30.27 1025 10 16 0.00 0.00
7:15 am 07:15 Clear 35 1.5 33 0.5 93 93 WNW 9 15 30.27 1025 10 16 N/A
7:35 am 07:35 Clear 35 1.7 33 0.5 92 92 WNW 8 13 30.27 1025 10 16 N/A
7:55 am 07:55 Clear 33 0.6 32 -0.2 94 94 NW 8 13 30.27 1025 10 16 N/A
8:15 am 08:15 Sunny 33 0.6 32 -0.1 95 95 W 7 11 30.30 1026 10 16 N/A
8:35 am 08:35 Sunny 34 1.3 33 0.4 94 94 WNW 6 9 30.30 1026 10 16 N/A
8:55 am 08:55 Sunny 36 2.1 34 1.1 93 93 WNW 7 11 30.30 1026 10 16 N/A
9:15 am 09:15 Sunny 38 3.4 36 2 91 91 WNW 8 13 30.30 1026 10 16 N/A
9:35 am 09:35 Sunny 40 4.4 37 2.5 88 88 WNW 7 11 30.30 1026 10 16 N/A
9:55 am 09:55 Sunny 42 5.5 37 2.9 84 84 W 7 11 30.27 1025 10 16 N/A
10:15 am 10:15 Sunny 44 6.7 38 3.4 80 80 W 8 13 30.27 1025 10 16 N/A
10:35 am 10:35 Sunny 46 7.8 38 3.5 74 74 WNW 8 13 30.27 1025 10 16 N/A
10:55 am 10:55 Sunny 48 9 39 4 71 71 WNW 7 11 30.24 1024 10 16 N/A
11:15 am 11:15 Sunny 49 9.7 39 3.7 67 67 NW 6 9 30.24 1024 10 16 N/A
11:35 am 11:35 Sunny 51 10.6 38 3.5 62 62 NW 5 7 30.24 1024 10 16 N/A
11:55 am 11:55 Sunny 53 11.5 37 2.6 55 55 Calm 30.21 1023 10 16 N/A
12:15 pm 12:15 Sunny 54 12.2 36 2.3 51 51 Calm 30.21 1023 10 16 N/A
12:35 pm 12:35 Sunny 56 13.1 37 2.6 49 49 Calm 30.21 1023 10 16 N/A
12:55 pm 12:55 Sunny 56 13.5 34 1.1 43 43 Calm 30.21 1023 10 16 N/A
1:15 pm 13:15 Sunny 57 14.1 34 1.2 42 42 WNW 3 6 30.21 1023 10 16 N/A
1:35 pm 13:35 Sunny 58 14.5 33 0.3 38 38 Calm 30.15 1021 10 16 N/A
1:55 pm 13:55 Sunny 59 15 33 0.3 37 37 W 5 7 30.15 1021 10 16 N/A
2:15 pm 14:15 Sunny 59 15 34 0.9 39 39 WNW 6 9 30.15 1021 10 16 N/A
2:35 pm 14:35 Sunny 60 15.4 34 1.2 38 38 W 6 9 30.12 1020 10 16 N/A
2:55 pm 14:55 Sunny 61 15.9 32 0 34 34 Calm 30.12 1020 10 16 N/A
3:15 pm 15:15 Sunny 61 15.9 32 -0.2 34 34 Calm 30.12 1020 10 16 N/A
3:35 pm 15:35 Sunny 62 16.5 33 0.8 35 35 SE 3 6 30.12 1020 10 16 N/A
3:55 pm 15:55 Sunny 62 16.4 34 1 35 35 Calm 30.12 1020 10 16 N/A
4:15 pm 16:15 Sunny 62 16.7 33 0.8 34 34 SSE 6 9 30.12 1020 10 16 N/A
4:35 pm 16:35 Sunny 62 16.8 32 -0.1 32 32 Calm 30.12 1020 7 11 N/A
4:55 pm 16:55 Sunny 63 17 35 1.4 35 35 SSW 8 13 30.12 1020 10 16 N/A
5:15 pm 17:15 Sunny 62 16.6 37 2.5 39 39 S 7 11 30.12 1020 10 16 N/A
5:35 pm 17:35 Sunny 61 16.1 36 2.4 40 40 SSW 6 9 30.12 1020 10 16 N/A
5:55 pm 17:55 Sunny 60 15.6 38 3.2 44 44 SSW 6 9 30.12 1020 10 16 N/A
6:15 pm 18:15 Sunny 58 14.2 39 3.8 50 50 S 7 11 30.18 1022 10 16 N/A
6:35 pm 18:35 Sunny 55 12.8 38 3.1 52 52 SSW 6 9 30.18 1022 10 16 N/A
6:55 pm 18:55 Clear 52 11.2 37 2.6 56 56 S 6 9 30.21 1023 10 16 N/A
7:15 pm 19:15 Clear 51 10.6 37 2.7 58 58 S 6 9 30.21 1023 10 16 N/A
7:35 pm 19:35 Clear 49 9.2 38 3.1 66 66 SE 5 7 30.21 1023 10 16 N/A
7:55 pm 19:55 Clear 50 10 37 2.8 61 61 SE 6 9 30.21 1023 10 16 N/A
8:15 pm 20:15 Clear 48 9.1 37 2.8 65 65 SE 6 9 30.21 1023 10 16 N/A
8:35 pm 20:35 Clear 49 9.2 37 2.6 64 64 SE 5 7 30.21 1023 10 16 N/A
8:55 pm 20:55 Clear 47 8.5 36 2.3 65 65 SE 5 7 30.21 1023 10 16 N/A
9:15 pm 21:15 Clear 47 8.5 36 2.4 66 66 SE 3 6 30.21 1023 10 16 N/A
9:35 pm 21:35 Clear 47 8.5 36 2.3 65 65 Calm 30.24 1024 10 16 N/A
9:55 pm 21:55 Clear 42 5.6 37 2.5 81 81 Calm 30.27 1025 10 16 N/A
10:15 pm 22:15 Clear 42 5.3 37 2.7 84 84 Calm 30.30 1026 10 16 N/A
10:35 pm 22:35 Clear 42 5.5 37 2.6 82 82 Calm 30.27 1025 10 16 N/A
10:55 pm 22:55 Clear 42 5.5 37 2.8 83 83 SE 3 6 30.27 1025 10 16 N/A
11:15 pm 23:15 Clear 42 5.3 38 3.1 86 86 Calm 30.30 1026 10 16 N/A
11:35 pm 23:35 Clear 41 4.8 36 2.3 84 84 Calm 30.30 1026 10 16 N/A
11:55 pm 23:55 Clear 42 5.5 37 2.7 82 82 Calm 30.27 1025 10 16 N/A

Powered by AerisWeather